Station KWHH1 - 1617433 - Kawaihae, HI Image indicating link to RSS feed of recent meteorological observations for station KWHH1


Conditions at KWHH1 as of
(12:48 pm HAST)
2248 GMT on 06/21/2024:
     

Click on the graph icon in the table below to see a time series plot of the last five days of that observation.

5-day plot - Atmospheric Pressure Atmospheric Pressure (PRES):29.98 in
5-day plot - Air Temperature Air Temperature (ATMP): 79.7 °F
5-day plot - Water Temperature Water Temperature (WTMP): 80.1 °F
NOS Water Level Observation Network Water Level
Previous observations
TIME
(HAST)
5-day plot - Wind Direction
WDIR
 
5-day plot - Wind Speed
WSPD
kts
5-day plot - Wind Gust
GST
kts
5-day plot - Wave Height
WVHT
ft
5-day plot - Dominant Wave Period
DPD
sec
5-day plot - Average Wave Period
APD
sec
5-day plot - Mean Wave Direction
MWD
 
5-day plot - Atmospheric Pressure
PRES
in
5-day plot - Pressure Tendency
PTDY
in
5-day plot - Air Temperature
ATMP
°F
5-day plot - Water Temperature
WTMP
°F
5-day plot - Dew Point
DEWP
°F
5-day plot - Salinity
SAL
psu
5-day plot - Visibility
VIS
nmi
5-day plot - Tide (above MLLW)
TIDE
ft
2024-06-21 12:42 pm-------29.97- 81.0 80.1----
2024-06-21 12:36 pm-------29.98- 80.6 80.1----
2024-06-21 12:30 pm W 8.9 12.0----29.97- 83.7 80.1----
2024-06-21 12:24 pmWSW 1.9 4.1----29.98- 85.1 80.1----
2024-06-21 12:18 pm NW 5.1 11.1----29.99- 85.3 79.9----
2024-06-21 12:12 pm N 4.1 19.0----29.99- 85.8 79.9----
2024-06-21 12:06 pmESE 14.0 22.9----29.98- 88.0 79.9----
2024-06-21 12:00 pmESE 11.1 20.0----29.99-0.01 88.5 79.9----
2024-06-21 11:54 am E 13.0 20.0----29.99- 87.6 79.9----
2024-06-21 11:48 am E 13.0 19.0----29.98- 88.7 79.9----
2024-06-21 11:42 am E 14.0 22.9----29.98- 89.2 79.9----
2024-06-21 11:36 am E 12.0 17.1----29.98- 89.1 79.9----
2024-06-21 11:30 amESE 12.0 19.0----29.98- 89.2 79.9----
2024-06-21 11:24 amESE 11.1 22.0----29.98- 88.2 79.9----
2024-06-21 11:18 am E 15.0 24.1----29.98- 88.2 79.9----
2024-06-21 11:12 am E 14.0 21.0----29.98- 88.0 79.7----
2024-06-21 11:06 am E 14.0 22.9----29.99- 87.4 79.7----
2024-06-21 11:00 am E 15.0 27.0----29.99+0.00 86.9 79.7----
2024-06-21 10:54 am E 18.1 24.1----29.99- 86.4 79.7----
2024-06-21 10:48 am E 11.1 20.0----29.99- 87.6 79.7----
2024-06-21 10:42 am E 17.1 25.1----29.99- 86.2 79.7----
2024-06-21 10:36 amESE 12.0 21.0----29.99- 86.9 79.7----
2024-06-21 10:30 am E 15.9 26.0----30.00- 86.0 79.7----
2024-06-21 10:24 am E 15.0 26.0----30.00- 86.5 79.7----
2024-06-21 10:18 am E 17.1 28.0----30.00- 86.0 79.7----
2024-06-21 10:12 am E 14.0 27.0----29.99- 86.2 79.7----
2024-06-21 10:06 am E 13.0 21.0----30.00- 86.9 79.7----
2024-06-21 10:00 am E 13.0 22.9----30.00+0.01 86.5 79.7----
2024-06-21 09:54 am E 17.1 26.0----30.00- 86.0 79.7----
2024-06-21 09:48 amESE 15.9 21.0----30.00- 85.6 79.7----
2024-06-21 09:42 am SE 13.0 21.0----30.00- 84.9 79.7----
2024-06-21 09:36 amESE 13.0 24.1----30.00- 84.9 79.7----
2024-06-21 09:30 amESE 15.0 22.9----30.00- 84.2 79.7----
2024-06-21 09:24 amESE 13.0 21.0----30.00- 84.6 79.7----
2024-06-21 09:18 amESE 13.0 22.9----30.00- 84.7 79.7----
2024-06-21 09:12 am E 14.0 22.9----30.00- 83.7 79.7----
2024-06-21 09:06 am E 17.1 24.1----30.00- 83.5 79.9----
2024-06-21 09:00 amESE 14.0 22.0----30.00+0.03 83.5 79.9----
2024-06-21 08:54 am E 14.0 22.9----30.00- 83.1 79.9----
2024-06-21 08:48 amESE 15.0 24.1----30.00- 82.8 79.9----
2024-06-21 08:42 amESE 13.0 22.9----30.00- 82.0 79.9----
2024-06-21 08:36 amESE 15.0 22.0----30.00- 82.0 79.9----
2024-06-21 08:30 amESE 15.0 21.0----30.00- 82.0 79.9----
2024-06-21 08:24 amESE 15.0 22.9----29.99- 82.0 79.9----
2024-06-21 08:18 am E 14.0 25.1----29.99- 82.0 79.9----
2024-06-21 08:12 am E 14.0 25.1----29.99- 81.5 79.9----
2024-06-21 08:06 am E 15.9 24.1----29.98- 81.3 79.9----
2024-06-21 08:00 am E 15.0 26.0----29.98+0.01 81.3 79.9----
2024-06-21 07:54 am E 17.1 22.0----29.99- 80.8 79.9----
2024-06-21 07:48 am E 15.0 22.0----29.99- 80.6 79.9----
2024-06-21 07:42 am E 15.9 22.0----29.99- 80.8 79.9----
2024-06-21 07:36 amESE 15.9 25.1----29.99- 80.8 79.9----
2024-06-21 07:30 amESE 17.1 24.1----29.99- 80.6 79.9----
2024-06-21 07:24 amESE 15.9 22.9----29.99- 80.1 79.9----
2024-06-21 07:18 amESE 14.0 19.0----29.99- 79.5 79.9----
2024-06-21 07:12 amESE 13.0 19.0----29.98- 79.0 79.9----
2024-06-21 07:06 amESE 15.9 22.9----29.98- 78.6 79.9----
2024-06-21 07:00 amESE 13.0 20.0----29.98+0.01 78.4 79.9----
2024-06-21 06:54 amESE 13.0 22.0----29.98- 78.4 79.9----
2024-06-21 06:48 amESE 15.0 21.0----29.98- 78.1 79.9----
2024-06-21 06:42 am SE 17.1 24.1----29.98- 77.9 79.9----
2024-06-21 06:36 am SE 15.0 25.1----29.98- 77.7 79.9----
2024-06-21 06:30 am SE 14.0 20.0----29.98- 77.7 79.9----
2024-06-21 06:24 am SE 18.1 24.1----29.98- 77.9 80.1----
2024-06-21 06:18 amESE 13.0 21.0----29.98- 77.7 80.1----
2024-06-21 06:12 am SE 14.0 20.0----29.98- 77.5 80.1----
2024-06-21 06:06 amESE 12.0 22.0----29.97- 77.9 80.1----
2024-06-21 06:00 am SE 13.0 17.1----29.97+0.02 77.5 80.1----
2024-06-21 05:54 am SE 14.0 22.0----29.97- 77.2 80.1----
2024-06-21 05:48 am SE 11.1 21.0----29.97- 77.0 80.1----
2024-06-21 05:42 am SE 14.0 21.0----29.97- 77.2 80.1----
2024-06-21 05:36 am SE 13.0 21.0----29.97- 77.2 80.1----
2024-06-21 05:30 am SE 13.0 19.0----29.97- 77.2 80.1----
2024-06-21 05:24 am SE 14.0 21.0----29.97- 77.4 80.1----
2024-06-21 05:18 am SE 13.0 19.0----29.97- 77.5 80.1----
2024-06-21 05:12 am SE 13.0 18.1----29.97- 77.5 80.1----
2024-06-21 05:06 am SE 12.0 18.1----29.97- 77.4 80.1----
2024-06-21 05:00 amESE 12.0 19.0----29.97+0.02 77.5 80.1----
2024-06-21 04:54 amESE 13.0 18.1----29.97- 77.5 80.1----
2024-06-21 04:48 amESE 14.0 17.1----29.97- 77.4 80.1----
2024-06-21 04:42 amESE 13.0 19.0----29.97- 77.4 80.1----
2024-06-21 04:36 amESE 9.9 17.1----29.97- 77.2 80.1----
2024-06-21 04:30 am E 12.0 18.1----29.97- 77.4 80.1----
2024-06-21 04:24 amESE 11.1 17.1----29.97- 77.4 80.1----
2024-06-21 04:18 am E 13.0 17.1----29.97- 77.5 80.1----
2024-06-21 04:12 am E 11.1 18.1----29.97- 77.5 80.1----
2024-06-21 04:06 am E 12.0 19.0----29.97- 77.7 80.2----
2024-06-21 04:00 amESE 14.0 20.0----29.97+0.00 77.9 80.2----
2024-06-21 03:54 am E 9.9 15.0----29.97- 77.7 80.2----
2024-06-21 03:48 amESE 11.1 18.1----29.97- 77.9 80.2----
2024-06-21 03:42 amESE 12.0 19.0----29.97- 77.9 80.2----
2024-06-21 03:36 amESE 13.0 19.0----29.96- 77.9 80.2----
2024-06-21 03:30 amESE 12.0 15.9----29.96- 77.7 80.2----
2024-06-21 03:24 am SE 13.0 22.0----29.96- 77.9 80.2----
2024-06-21 03:18 amESE 15.0 20.0----29.96- 78.1 80.2----
2024-06-21 03:12 amESE 15.9 22.0----29.96- 78.3 80.2----
2024-06-21 03:06 amESE 12.0 20.0----29.95- 78.4 80.2----
2024-06-21 03:00 am SE 15.9 24.1----29.95-0.03 78.3 80.2----
2024-06-21 02:54 amESE 13.0 21.0----29.95- 79.0 80.2----
2024-06-21 02:48 am E 11.1 19.0----29.95- 79.5 80.2----
2024-06-21 02:42 amESE 8.9 21.0----29.95- 78.8 80.2----
2024-06-21 02:36 amESE 11.1 15.9----29.95- 79.2 80.2----
2024-06-21 02:30 amESE 12.0 17.1----29.96- 79.7 80.2----
2024-06-21 02:24 am E 12.0 19.0----29.96- 79.5 80.2----
2024-06-21 02:18 amESE 13.0 21.0----29.96- 79.0 80.2----
2024-06-21 02:12 amESE 14.0 22.0----29.95- 78.6 80.2----
2024-06-21 02:06 am SE 12.0 17.1----29.96- 78.4 80.2----
2024-06-21 02:00 amESE 14.0 22.0----29.96-0.03 78.4 80.2----
2024-06-21 01:54 amESE 8.9 17.1----29.96- 78.3 80.2----
2024-06-21 01:48 am SE 8.0 15.9----29.96- 78.4 80.2----
2024-06-21 01:42 amESE 8.0 15.9----29.96- 79.3 80.2----
2024-06-21 01:36 am E 8.0 13.0----29.96- 79.3 80.2----
2024-06-21 01:30 amESE 9.9 15.0----29.96- 78.8 80.2----
2024-06-21 01:24 amESE 9.9 15.0----29.96- 78.4 80.2----
2024-06-21 01:18 am SE 9.9 24.1----29.96- 79.3 80.2----
2024-06-21 01:12 am E 6.0 14.0----29.96- 79.0 80.2----
2024-06-21 01:06 am E 4.1 8.9----29.96- 79.5 80.2----
2024-06-21 01:00 amESE 5.1 12.0----29.96-0.02 80.1 80.2----
2024-06-21 12:54 am SE 7.0 12.0----29.96- 80.4 80.2----
2024-06-21 12:48 amSSE 2.9 6.0----29.97- 79.9 80.2----
2024-06-21 12:42 am- 0.0 4.1----29.97- 80.8 80.2----
2024-06-21 12:36 amSSE 4.1 7.0----29.96- 80.8 80.2----
2024-06-21 12:30 am SE 7.0 9.9----29.97- 79.9 80.2----
2024-06-21 12:24 am SE 6.0 14.0----29.97- 79.9 80.2----
2024-06-21 12:18 amSSE 11.1 17.1----29.97- 80.2 80.2----
2024-06-21 12:12 am SE 8.9 15.9----29.97- 80.4 80.2----
2024-06-21 12:06 amSSE 11.1 17.1----29.98- 79.9 80.2----
2024-06-21 12:00 am SE 12.0 21.0----29.98+0.00 80.8 80.2----
2024-06-20 11:54 pmESE 13.0 22.9----29.98- 80.4 80.2----
2024-06-20 11:48 pmESE 15.0 22.9----29.98- 80.6 80.2----
2024-06-20 11:42 pm SE 15.0 24.1----29.98- 79.9 80.4----
2024-06-20 11:36 pmSSE 15.0 21.0----29.98- 79.9 80.4----
2024-06-20 11:30 pm SE 12.0 18.1----29.99- 79.7 80.4----
2024-06-20 11:24 pm SE 13.0 20.0----29.98- 80.1 80.4----
2024-06-20 11:18 pm SE 14.0 20.0----29.98- 79.5 80.4----
2024-06-20 11:12 pmESE 9.9 20.0----29.99- 79.7 80.4----
2024-06-20 11:06 pm SE 13.0 25.1----29.98- 80.1 80.4----
2024-06-20 11:00 pmESE 12.0 18.1----29.99+0.01 80.1 80.4----
2024-06-20 10:54 pm SE 8.0 17.1----29.99- 79.9 80.4----
2024-06-20 10:48 pm SE 8.9 17.1----29.99- 80.2 80.4----
2024-06-20 10:42 pmESE 11.1 18.1----29.99- 80.2 80.4----
2024-06-20 10:36 pm SE 8.9 15.9----29.99- 80.4 80.4----
2024-06-20 10:30 pm SE 9.9 18.1----29.99- 79.9 80.4----
2024-06-20 10:24 pmESE 9.9 15.9----29.98- 80.2 80.4----
2024-06-20 10:18 pm SE 12.0 22.0----29.99- 80.1 80.4----
2024-06-20 10:12 pm SE 12.0 22.0----29.99- 79.3 80.4----
2024-06-20 10:06 pmESE 13.0 18.1----29.99- 80.1 80.4----
2024-06-20 10:00 pm SE 14.0 22.0----29.99+0.03 79.7 80.4----
2024-06-20 09:54 pm SE 11.1 21.0----29.99- 79.3 80.4----
2024-06-20 09:48 pm SE 15.9 21.0----29.98- 79.3 80.4----
2024-06-20 09:42 pm SE 11.1 19.0----29.98- 79.2 80.4----
2024-06-20 09:36 pm SE 13.0 20.0----29.99- 79.2 80.4----
2024-06-20 09:30 pm SE 14.0 24.1----29.98- 79.3 80.4----
2024-06-20 09:24 pm SE 11.1 19.0----29.98- 79.3 80.4----
2024-06-20 09:18 pmESE 13.0 21.0----29.98- 79.3 80.4----
2024-06-20 09:12 pmESE 13.0 19.0----29.98- 80.1 80.4----
2024-06-20 09:06 pmESE 12.0 19.0----29.98- 80.1 80.4----
2024-06-20 09:00 pmESE 11.1 17.1----29.98+0.03 79.7 80.4----
2024-06-20 08:54 pmESE 12.0 24.1----29.98- 79.3 80.4----
2024-06-20 08:48 pmESE 9.9 22.0----29.98- 79.5 80.4----
2024-06-20 08:42 pmESE 14.0 25.1----29.98- 79.3 80.4----
2024-06-20 08:36 pmESE 11.1 19.0----29.98- 79.5 80.6----
2024-06-20 08:30 pm E 9.9 19.0----29.98- 79.7 80.6----
2024-06-20 08:24 pm E 8.0 15.0----29.98- 80.1 80.6----
2024-06-20 08:18 pm E 11.1 22.9----29.98- 80.6 80.6----
2024-06-20 08:12 pmESE 9.9 15.9----29.98- 80.1 80.6----
2024-06-20 08:06 pmESE 12.0 20.0----29.98- 80.2 80.6----
2024-06-20 08:00 pmESE 8.9 20.0----29.98+0.04 80.2 80.6----
2024-06-20 07:54 pmESE 12.0 22.0----29.98- 80.2 80.6----
2024-06-20 07:48 pm E 13.0 19.0----29.97- 80.2 80.6----
2024-06-20 07:42 pmESE 11.1 17.1----29.97- 80.6 80.6----
2024-06-20 07:36 pm E 12.0 19.0----29.97- 80.4 80.6----
2024-06-20 07:30 pm E 7.0 11.1----29.97- 81.0 80.6----
2024-06-20 07:24 pmESE 8.9 17.1----29.96- 80.8 80.6----
2024-06-20 07:18 pm E 5.1 15.0----29.96- 81.0 80.8----
2024-06-20 07:12 pm E 9.9 15.0----29.96- 81.1 80.8----
2024-06-20 07:06 pmESE 7.0 12.0----29.96- 81.3 80.8----
2024-06-20 07:00 pmESE 9.9 15.0----29.96+0.03 81.7 80.8----
2024-06-20 06:54 pmESE 8.9 12.0----29.95- 82.2 80.8----
2024-06-20 06:48 pm E 7.0 12.0----29.95- 82.2 80.8----
2024-06-20 06:42 pm E 8.0 12.0----29.95- 81.9 80.8----
2024-06-20 06:36 pm E 4.1 19.0----29.95- 81.9 81.0----
2024-06-20 06:30 pm E 11.1 18.1----29.95- 81.1 81.0----
2024-06-20 06:24 pmESE 7.0 15.9----29.95- 82.4 81.0----
2024-06-20 06:18 pmENE 7.0 13.0----29.95- 82.4 81.0----
2024-06-20 06:12 pmWSW 2.9 15.0----29.95- 81.9 81.0----
2024-06-20 06:06 pm W 9.9 13.0----29.95- 80.2 81.0----
2024-06-20 06:00 pm SW 8.9 11.1----29.95+0.02 80.2 81.0----
2024-06-20 05:54 pmWSW 8.9 15.0----29.95- 79.9 81.0----
2024-06-20 05:48 pmWSW 12.0 15.0----29.94- 80.1 81.0----
2024-06-20 05:42 pmWSW 9.9 14.0----29.94- 79.7 81.0----
2024-06-20 05:36 pm W 12.0 14.0----29.94- 79.7 81.1----
2024-06-20 05:30 pm W 11.1 13.0----29.94- 79.7 81.1----
2024-06-20 05:24 pm W 12.0 13.0----29.94- 79.7 81.1----
2024-06-20 05:18 pm W 12.0 15.0----29.93- 79.7 81.1----
2024-06-20 05:12 pm W 12.0 13.0----29.94- 79.7 81.0----
2024-06-20 05:06 pm W 12.0 15.0----29.93- 79.7 81.0----
2024-06-20 05:00 pm W 13.0 15.0----29.93+0.00 79.5 81.0----
2024-06-20 04:54 pm W 12.0 14.0----29.93- 79.7 81.0----
2024-06-20 04:48 pm W 12.0 14.0----29.93- 79.5 81.0----
2024-06-20 04:42 pm W 12.0 14.0----29.93- 79.7 81.0----
2024-06-20 04:36 pm W 13.0 14.0----29.93- 79.5 81.0----
2024-06-20 04:30 pm W 11.1 13.0----29.93- 79.7 81.0----
2024-06-20 04:24 pm W 12.0 14.0----29.93- 79.5 81.0----
2024-06-20 04:18 pm W 12.0 13.0----29.93- 79.7 81.0----
2024-06-20 04:12 pm W 12.0 14.0----29.93- 80.1 81.0----
2024-06-20 04:06 pm W 12.0 13.0----29.93- 79.7 81.0----
2024-06-20 04:00 pm W 11.1 13.0----29.93-0.01 79.9 81.0----
2024-06-20 03:54 pm W 12.0 14.0----29.93- 79.5 81.0----
2024-06-20 03:48 pm W 12.0 14.0----29.93- 79.5 80.8----
2024-06-20 03:42 pm W 12.0 14.0----29.93- 79.5 80.8----
2024-06-20 03:36 pm W 13.0 14.0----29.93- 79.5 80.8----
2024-06-20 03:30 pm W 12.0 14.0----29.93- 79.3 80.8----
2024-06-20 03:24 pm W 13.0 14.0----29.93- 79.2 80.8----
2024-06-20 03:18 pm W 13.0 15.0----29.94- 79.3 80.6----
2024-06-20 03:12 pm W 13.0 15.0----29.93- 79.5 80.6----
2024-06-20 03:06 pm W 12.0 17.1----29.94- 79.3 80.6----
2024-06-20 03:00 pm W 13.0 15.9----29.93-0.03 79.3 80.6----
2024-06-20 02:54 pm W 15.0 17.1----29.93- 79.3 80.6----
2024-06-20 02:48 pmWNW 13.0 15.9----29.94- 79.7 80.6----
2024-06-20 02:42 pmWNW 12.0 15.0----29.94- 80.1 80.6----
2024-06-20 02:36 pm W 13.0 15.0----29.94- 79.9 80.6----
2024-06-20 02:30 pmWNW 13.0 15.9----29.94- 80.4 80.4----
2024-06-20 02:24 pmWNW 15.0 19.0----29.94- 79.7 80.4----
2024-06-20 02:18 pmWNW 12.0 18.1----29.94- 80.4 80.4----
2024-06-20 02:12 pm NW 14.0 18.1----29.94- 80.1 80.6----
2024-06-20 02:06 pm NW 12.0 19.0----29.94- 81.9 80.6----
2024-06-20 02:00 pm NW 11.1 15.9----29.94-0.04 81.1 80.6----
2024-06-20 01:54 pm NW 7.0 15.9----29.94- 84.0 80.6----
2024-06-20 01:48 pm NW 13.0 15.9----29.94- 81.1 80.6----
2024-06-20 01:42 pmNNW 11.1 19.0----29.94- 82.8 80.6----
2024-06-20 01:36 pm NW 12.0 17.1----29.94- 82.9 80.6----
2024-06-20 01:30 pm NW 12.0 17.1----29.95- 81.7 80.6----
2024-06-20 01:24 pmNNW 12.0 20.0----29.95- 82.8 80.4----
2024-06-20 01:18 pm N 9.9 19.0----29.94- 84.0 80.4----
2024-06-20 01:12 pm N 8.9 13.0----29.94- 86.4 80.4----
2024-06-20 01:06 pm E 8.9 14.0----29.94- 86.5 80.4----
2024-06-20 01:00 pmENE 11.1 17.1----29.94-0.06 86.5 80.4----
2024-06-20 12:54 pm SE 19.0 27.0----29.93- 87.1 80.4----